EHI
33 38 53 75 89 95 98 100 100 100 100 100 100 98 95 91 82 71 65 61 58 52 45 40 37 34 29 20 11 5 1 0 0 1 0 0 0 0 0 0 0 0 0
43 48 61 78 91 96 97 97 98 99 99 99 99 96 91 85 75 63 56 52 49 45 38 32 28 26 23 16 8 3 0 0 0 1 0 0 0 0 0 0 0 0 0
56 60 67 78 90 95 94 94 95 97 97 97 96 92 83 73 64 53 44 39 36 31 26 20 18 16 14 9 4 1 0 0 0 0 0 0 0 0 0 0 0 0 0
64 66 68 75 84 89 91 91 91 93 94 94 92 85 73 62 54 44 35 28 23 16 12 10 9 8 6 3 1 0 0 0 0 0 0 0 0 0 0 0 0 0 0
62 61 61 65 72 78 81 83 83 83 83 82 79 72 60 50 43 34 24 16 11 6 3 3 3 2 1 0 0 0 0 0 0 0 0 0 0 0 0 0 0 0 0
46 44 44 48 54 59 62 65 65 64 62 60 57 51 44 37 31 24 13 6 3 1 1 0 0 0 0 0 0 0 0 0 0 0 0 0 0 0 0 0 0 0 0
26 25 26 29 33 36 38 39 39 37 36 35 33 31 27 22 18 14 7 2 1 0 0 0 0 0 0 0 0 0 0 0 0 0 0 0 0 0 0 0 0 0 0
12 12 13 14 15 15 17 17 16 16 15 15 14 13 11 9 7 5 3 1 0 0 0 0 0 0 0 0 0 0 0 0 0 0 0 0 0 0 0 0 0 0 0
5 4 4 4 4 4 4 5 5 5 4 3 3 3 2 1 1 1 1 0 0 0 0 0 0 0 0 0 0 0 0 0 0 0 0 0 0 0 0 0 0 0 0
1 1 1 1 1 1 0 1 1 1 1 0 0 0 0 0 0 0 0 0 0 0 0 0 0 0 0 0 0 0 0 0 0 0 0 0 0 0 0 0 0 0 0
0 0 0 0 0 0 0 0 0 0 0 0 0 0 0 0 0 0 0 0 0 0 0 0 0 0 0 0 0 0 0 0 0 0 0 0 0 0 0 0 0 0 0
0 0 0 0 0 0 0 0 0 0 0 0 0 0 0 0 0 0 0 0 0 0 0 0 0 0 0 0 0 0 0 0 0 0 0 0 0 0 0 0 0 0 0
0 0 0 0 0 0 0 0 0 0 0 0 0 0 0 0 0 0 0 0 0 0 0 0 0 0 0 0 0 0 0 0 0 0 0 0 0 0 0 0 0 0 0
0 0 0 0 0 0 0 0 0 0 0 0 0 0 0 0 0 0 0 0 0 0 0 0 0 0 0 0 0 0 0 0 0 0 0 0 0 0 0 0 0 0 0
0 0 0 0 0 0 0 0 0 0 0 0 0 0 0 0 0 0 0 0 0 0 0 0 0 0 0 0 0 0 0 0 0 0 0 0 0 0 0 0 0 0 0
0 0 0 0 0 0 0 0 0 0 0 0 0 0 0 0 0 0 0 0 0 0 0 0 0 0 0 0 0 0 0 0 0 0 0 0 0 0 0 0 0 0 0
0 0 0 0 0 0 0 0 0 0 0 0 0 0 0 0 0 0 0 0 0 0 0 0 0 0 0 0 0 0 0 0 0 0 0 0 0 0 0 0 0 0 0
0 0 0 0 0 0 0 0 0 0 0 0 0 0 0 0 0 0 0 0 0 0 0 0 0 0 0 0 0 0 0 0 0 0 0 0 0 0 0 0 0 0 0
0 0 0 0 0 0 0 0 0 0 0 0 0 0 0 0 0 0 0 0 0 0 0 0 0 0 0 0 0 0 0 0 0 0 0 0 0 0 0 0 0 0 0
0 0 0 0 0 0 0 0 0 0 0 0 0 0 0 0 0 0 0 0 0 0 0 0 0 0 0 0 0 0 0 0 0 0 0 0 0 0 0 0 0 0 0
0 0 0 0 0 0 0 0 0 0 0 0 0 0 0 0 0 0 0 0 0 0 0 0 0 0 0 0 0 0 0 0 0 0 0 0 0 0 0 0 0 0 0
0 0 0 0 0 0 0 0 0 0 0 0 0 0 0 0 0 0 0 0 0 0 0 0 0 0 0 0 0 0 0 0 0 0 0 0 0 0 0 0 0 0 0
0 0 0 0 0 0 0 0 0 0 0 0 0 0 0 0 0 0 0 0 0 0 0 0 0 0 0 0 0 0 0 0 0 0 0 0 0 0 0 0 0 0 0
0 0 0 0 0 0 0 0 0 0 0 0 0 0 0 0 0 0 0 0 0 0 0 0 0 0 0 0 0 0 0 0 0 0 0 0 0 0 0 0 0 0 0
0 0 0 0 0 0 0 0 0 0 0 0 0 0 0 0 0 0 0 0 0 0 0 0 0 0 0 0 0 0 0 0 0 0 0 0 0 0 0 0 0 0 0
0 0 0 0 0 0 0 0 0 0 0 0 0 0 0 0 0 0 0 0 0 0 0 0 0 0 0 0 0 0 0 0 0 0 0 0 0 0 0 0 0 0 0
Wind_Speed
4 4 3 7 9 9 10 11 10 10 9 8 8 7 5 5 4 4 5 5 5 4 4 3 3 2 2 3 4 3 2 1 1 1 2 3 3 3 2 1 2 2 2
9 8 6 6 6 7 9 9 9 10 9 7 5 5 5 4 4 4 5 4 4 4 3 3 3 3 3 3 3 2 1 1 1 1 1 2 2 2 3 3 3 3 2
12 11 10 7 6 5 7 9 8 9 9 8 6 5 5 4 4 4 4 4 5 4 4 3 3 3 2 3 3 2 2 1 1 0 1 1 2 3 1 1 2 2 2
14 14 12 10 9 7 5 6 7 8 8 8 8 8 6 5 5 5 5 6 6 6 5 5 5 4 3 3 3 3 2 2 1 1 1 1 2 1 3 3 3 3 3
15 16 15 13 12 11 9 9 9 8 7 7 8 7 6 5 6 7 8 7 7 7 7 7 6 6 6 6 6 5 4 3 2 2 1 2 1 0 2 4 4 3 3
15 15 15 14 14 14 13 12 12 12 10 9 8 7 8 8 9 8 7 7 6 7 8 8 7 7 6 6 6 5 6 4 4 3 2 1 1 1 2 3 4 5 4
14 14 14 14 14 15 14 13 14 14 12 12 11 10 9 9 9 8 7 7 6 6 7 7 7 6 6 5 5 5 4 4 3 2 1 1 1 2 2 3 5 5 5
13 13 13 12 13 14 14 14 15 15 14 14 12 11 10 8 8 9 8 8 7 7 7 7 7 6 5 5 4 4 3 2 2 2 1 1 2 2 3 3 4 6 5
13 13 12 12 13 13 13 14 15 14 14 13 13 13 12 11 10 10 9 8 7 7 7 7 6 6 5 4 3 3 3 2 2 2 2 2 3 3 3 3 4 5 7
13 12 11 11 12 12 13 13 14 14 13 12 11 11 11 11 10 10 10 9 8 7 7 7 6 5 5 4 4 2 2 2 2 2 3 3 3 3 4 4 5 5 6
13 11 11 10 11 11 12 12 13 14 13 13 12 12 11 11 11 10 10 8 7 7 7 6 5 5 4 4 3 3 3 3 4 4 5 5 5 4 4 4 5 5 5
12 12 11 11 12 12 12 12 12 13 13 12 12 12 11 10 10 10 9 8 7 6 6 5 5 4 4 4 4 5 6 5 5 5 5 5 5 5 4 4 5 5 5
12 12 11 11 12 12 12 12 12 12 12 12 12 11 11 10 10 9 8 8 7 6 5 5 4 4 4 5 6 6 6 6 5 5 5 5 5 5 4 4 5 5 6
12 12 11 11 11 11 11 11 11 11 11 12 11 11 10 9 9 8 7 6 5 5 5 4 5 5 7 8 9 9 8 7 7 6 6 6 5 5 4 5 5 5 6
12 12 11 10 10 10 10 10 11 10 10 10 10 9 8 7 7 6 6 5 5 5 4 4 5 5 6 8 9 8 9 9 9 7 6 7 8 8 5 6 5 6 7
12 11 11 10 9 9 9 9 9 8 8 8 8 7 7 6 5 5 5 5 5 5 5 5 5 5 6 7 9 8 8 9 9 8 7 8 7 5 5 8 10 11 10
11 10 9 8 8 7 7 8 7 7 7 6 6 6 6 5 5 5 5 5 4 4 4 4 4 5 6 5 6 10 9 9 7 7 7 8 7 5 5 8 12 11 13
9 9 7 7 7 7 7 6 6 6 6 6 5 5 4 5 4 5 5 4 3 3 2 3 4 3 4 3 5 12 9 8 6 6 7 6 5 4 6 9 10 10 9
8 7 7 7 6 6 5 5 5 5 5 5 5 5 5 4 4 4 3 2 2 2 2 2 3 2 3 1 4 9 9 6 7 7 7 6 5 4 8 9 10 11 10
8 7 7 7 6 5 4 4 4 4 4 4 4 4 4 3 3 3 2 2 2 2 3 2 2 2 2 3 2 7 7 7 8 7 6 5 5 7 9 9 10 11 11
8 7 7 6 5 4 3 3 4 4 4 4 4 3 2 1 1 2 2 2 2 2 2 2 2 2 2 2 1 5 6 8 9 8 7 5 6 11 13 11 9 11 11
8 7 6 5 4 3 2 3 4 3 3 3 2 2 2 3 3 2 2 2 3 3 3 2 2 2 2 2 1 5 8 8 9 8 7 8 13 16 16 12 11 14 12
7 6 6 5 4 3 3 4 3 3 2 2 1 1 2 2 2 2 3 2 2 3 4 4 4 4 3 2 4 7 10 10 8 7 11 14 17 15 11 10 12 10 6
6 5 6 6 5 4 4 4 3 3 3 2 2 2 2 2 1 1 2 2 3 5 5 5 5 5 4 6 7 8 8 10 9 9 12 15 14 11 9 8 6 4 4
6 5 5 5 5 5 3 3 2 2 2 2 3 3 3 2 1 0 2 3 5 5 5 6 6 6 6 7 8 7 7 8 8 10 8 7 6 6 6 6 5 5 4
6 5 5 5 5 4 2 2 1 2 2 3 3 4 3 2 2 1 3 6 6 8 7 4 4 4 4 8 10 11 12 13 12 8 6 6 6 7 7 7 6 5 5
Wind_Direction
97 55 79 129 139 142 151 161 169 161 161 165 171 174 168 146 129 116 118 118 113 113 115 120 123 125 126 129 129 123 113 91 72 321 291 260 240 235 226 241 282 281 276
48 48 40 73 118 140 153 158 167 165 167 162 162 159 146 130 116 105 102 103 103 108 125 125 130 126 124 132 137 131 132 133 147 170 278 293 277 242 229 205 219 245 262
45 38 35 36 72 108 152 165 168 164 163 153 141 133 117 113 115 112 98 86 91 90 80 98 98 107 126 132 131 134 152 152 138 122 154 273 305 340 313 257 256 244 253
44 37 32 28 39 53 82 121 138 144 146 144 147 149 148 146 130 117 103 88 77 77 77 79 81 82 83 94 99 88 83 112 123 89 50 49 60 341 325 316 291 269 255
47 40 32 30 36 45 57 72 79 88 107 125 131 131 128 117 109 104 101 91 78 73 72 72 73 72 73 73 72 69 63 64 75 73 57 42 20 225 257 294 313 308 281
52 46 40 37 39 44 51 66 71 69 75 85 94 103 107 108 109 108 106 96 85 76 74 76 75 75 78 77 76 71 68 66 65 56 46 41 8 319 290 290 302 301 299
57 49 43 42 44 49 52 62 69 67 69 76 77 81 87 94 97 100 98 97 92 87 80 81 79 79 78 77 79 77 72 66 62 47 28 11 333 312 301 294 295 297 297
64 58 53 52 52 53 57 63 68 68 67 70 70 71 75 79 80 81 87 88 89 90 89 85 83 82 82 81 76 77 72 64 41 14 5 325 304 299 286 284 297 300 297
71 65 60 59 60 60 61 66 70 70 69 71 73 72 73 77 80 80 81 86 93 97 93 91 88 82 76 71 69 70 58 44 12 345 334 323 309 296 297 298 293 294 298
82 75 69 67 67 68 67 67 70 72 71 71 73 77 75 76 78 79 78 81 81 83 86 82 79 74 66 57 43 41 47 10 348 325 321 317 317 335 324 315 313 305 298
87 80 76 73 72 73 73 73 73 73 73 73 74 74 75 76 77 79 79 80 82 82 81 80 76 73 65 48 26 3 5 2 356 342 347 347 338 327 329 322 314 314 320
90 86 81 76 73 72 72 73 75 77 79 78 77 76 76 75 77 79 79 79 77 76 76 74 67 61 56 38 19 5 12 3 355 350 344 336 330 337 321 320 319 315 311
92 86 81 76 74 73 71 70 71 73 76 78 76 74 73 72 73 72 70 70 71 67 63 59 54 43 38 36 27 15 2 351 344 338 327 320 316 308 314 319 309 305 307
93 88 82 77 72 69 69 69 68 69 73 75 74 72 71 71 70 69 66 65 64 64 51 44 39 37 40 38 24 7 347 343 335 322 312 306 303 304 318 311 303 311 316
90 85 82 77 74 73 70 68 66 65 69 75 77 76 78 77 74 69 63 58 51 55 43 38 37 36 59 40 25 357 344 337 322 315 311 307 304 297 287 294 309 309 300
94 88 85 83 78 76 77 77 75 73 75 77 80 78 76 73 70 70 62 55 47 41 34 32 34 37 58 57 30 360 336 319 310 313 318 312 307 324 296 282 283 279 281
98 92 88 86 85 81 82 83 82 81 82 81 80 77 73 66 58 59 58 49 43 42 37 27 28 66 87 54 12 351 324 307 307 315 315 316 328 356 348 326 310 295 287
104 101 99 94 92 93 91 90 93 92 88 82 76 73 70 67 61 55 50 42 32 25 24 26 18 52 99 57 2 341 322 311 316 317 311 313 329 18 353 323 312 304 305
107 106 107 106 103 99 100 99 95 93 91 85 76 62 53 48 49 46 39 30 9 6 1 27 14 22 116 107 356 346 323 324 328 319 322 328 336 19 343 322 312 311 309
109 109 108 107 104 103 109 111 106 99 91 85 72 61 47 36 37 26 7 0 342 347 348 6 351 353 73 147 341 340 330 334 330 321 326 350 345 331 323 317 311 306 309
113 114 112 111 114 119 125 117 107 93 88 88 82 67 33 0 53 6 338 325 330 337 325 331 336 13 47 153 235 323 331 335 326 322 326 327 320 317 312 306 291 289 302
120 121 121 120 121 127 129 108 91 86 89 86 81 55 358 342 27 359 331 330 329 319 318 335 352 21 55 43 334 311 312 312 315 316 322 324 322 315 309 304 292 295 301
132 135 132 124 120 110 95 91 87 80 79 74 40 355 337 330 331 325 326 345 350 346 355 360 1 6 20 26 351 334 324 319 315 320 324 318 312 310 305 300 301 301 297
137 138 131 119 110 98 86 83 72 51 32 6 351 316 297 284 282 307 342 17 14 9 4 7 2 360 10 16 0 344 336 339 337 337 322 313 306 304 301 305 310 307 305
130 127 121 115 109 103 94 86 75 43 5 335 315 303 292 287 260 139 48 47 65 58 25 12 0 360 358 359 338 327 327 327 320 321 310 314 327 335 339 338 336 331 331
125 119 115 111 112 112 102 74 36 359 335 322 314 305 299 301 306 140 121 74 103 112 94 62 5 4 6 332 328 326 321 315 314 316 316 325 332 337 337 335 332 331 334